When you browse on this site, cookies collect data to enhance your experience and personalize the content and advertising you see.
Visit our Privacy Policy to learn more. By continuing to use the site, you agree to this use of cookies and data.
  • In Portugal
  • List of Countries
  • For 7 days
  • Water Temperature
  • Satellite Maps
  • Weather Map
  • Weather Widgets
  • user-avatar
    Login

    Hourly Weather Jaczkow

    Today, 24 March, Sunday

    Time Temperature Precipitation Wind Pressure Humidity
    00:00 +9°C° 0.1 mm 3 mps 728 mmHg 91%
    01:00 +8°C° 0 mm 2 mps 729 mmHg 88%
    02:00 +7°C° 0 mm 2 mps 729 mmHg 88%
    03:00 +7°C° 0 mm 2 mps 729 mmHg 87%
    04:00 +6°C° 0 mm 2 mps 729 mmHg 87%
    05:00 +6°C° 0 mm 2 mps 728 mmHg 88%
    06:00 +5°C° 0 mm 2 mps 728 mmHg 89%
    07:00 +6°C° 0 mm 1 mps 728 mmHg 90%
    08:00 +6°C° 0 mm 2 mps 728 mmHg 82%
    09:00 +7°C° 0 mm 2 mps 728 mmHg 74%
    10:00 +8°C° 0 mm 2 mps 728 mmHg 67%
    11:00 +8°C° 0 mm 2 mps 727 mmHg 65%
    12:00 +10°C° 0 mm 1 mps 727 mmHg 64%
    13:00 +10°C° 0 mm 1 mps 726 mmHg 62%
    14:00 +10°C° 0.1 mm 1 mps 726 mmHg 65%
    15:00 +9°C° 0.1 mm 1 mps 725 mmHg 67%
    16:00 +9°C° 0.1 mm 1 mps 725 mmHg 69%
    17:00 +8°C° 0.1 mm 1 mps 724 mmHg 72%
    18:00 +8°C° 0.1 mm 1 mps 724 mmHg 75%
    19:00 +7°C° 0.1 mm 1 mps 724 mmHg 78%
    20:00 +7°C° 0 mm 1 mps 724 mmHg 79%
    21:00 +7°C° 0 mm 1 mps 723 mmHg 81%
    22:00 +6°C° 0 mm 1 mps 723 mmHg 83%
    23:00 +6°C° 0 mm 1 mps 723 mmHg 84%

    Tomorrow, 25 March, Monday

    Time Temperature Precipitation Wind Pressure Humidity
    00:00 +5°C° 0 mm 1 mps 722 mmHg 85%
    01:00 +5°C° 0 mm 1 mps 722 mmHg 85%
    02:00 +3°C° 0 mm 2 mps 722 mmHg 87%
    03:00 +3°C° 0 mm 2 mps 721 mmHg 89%
    04:00 +2°C° 0 mm 2 mps 721 mmHg 90%
    05:00 +2°C° 0 mm 2 mps 721 mmHg 88%
    06:00 +1°C° 0 mm 3 mps 720 mmHg 86%
    07:00 +2°C° 0 mm 3 mps 720 mmHg 84%
    08:00 +3°C° 0 mm 4 mps 720 mmHg 75%
    09:00 +3°C° 0 mm 5 mps 720 mmHg 66%
    10:00 +5°C° 0 mm 5 mps 719 mmHg 57%
    11:00 +3°C° 0.6 mm 6 mps 719 mmHg 64%
    12:00 +2°C° 0.6 mm 6 mps 719 mmHg 71%
    13:00 +1°C° 0.6 mm 6 mps 719 mmHg 78%
    14:00 +2°C° 0.1 mm 6 mps 719 mmHg 72%
    15:00 +2°C° 0.1 mm 6 mps 719 mmHg 65%
    16:00 +3°C° 0.1 mm 5 mps 720 mmHg 59%
    17:00 +3°C° 0 mm 4 mps 720 mmHg 65%
    18:00 +2°C° 0 mm 3 mps 721 mmHg 72%
    19:00 +1°C° 0 mm 3 mps 721 mmHg 78%
    20:00 +1°C° 0 mm 2 mps 722 mmHg 82%
    21:00 +1°C° 0 mm 2 mps 722 mmHg 85%
    22:00 +1°C° 0 mm 2 mps 723 mmHg 88%
    23:00 -1°C° 0 mm 2 mps 724 mmHg 90%

    Day after tomorrow, 26 March, Tuesday

    Time Temperature Precipitation Wind Pressure Humidity
    00:00 -1°C° 0 mm 2 mps 724 mmHg 92%
    01:00 -1°C° 0 mm 2 mps 725 mmHg 94%
    02:00 -1°C° 0 mm 2 mps 725 mmHg 94%
    03:00 -1°C° 0 mm 3 mps 726 mmHg 94%
    04:00 -1°C° 0 mm 3 mps 726 mmHg 93%
    05:00 -1°C° 0 mm 3 mps 727 mmHg 92%
    06:00 -1°C° 0 mm 3 mps 727 mmHg 91%
    07:00 -1°C° 0 mm 3 mps 728 mmHg 90%
    08:00 +1°C° 0 mm 3 mps 728 mmHg 81%
    09:00 +1°C° 0 mm 4 mps 728 mmHg 72%
    10:00 +4°C° 0 mm 4 mps 729 mmHg 63%
    11:00 +5°C° 0 mm 5 mps 728 mmHg 60%
    12:00 +6°C° 0 mm 5 mps 728 mmHg 57%
    13:00 +5°C° 0 mm 6 mps 728 mmHg 54%
    14:00 +5°C° 0 mm 6 mps 728 mmHg 56%
    15:00 +5°C° 0 mm 6 mps 728 mmHg 59%
    16:00 +4°C° 0 mm 6 mps 728 mmHg 61%
    17:00 +3°C° 0 mm 6 mps 728 mmHg 67%
    18:00 +2°C° 0 mm 5 mps 728 mmHg 73%
    19:00 0°C° 0 mm 5 mps 728 mmHg 78%
    20:00 0°C° 0 mm 4 mps 728 mmHg 79%
    21:00 0°C° 0 mm 4 mps 728 mmHg 80%
    22:00 +1°C° 0 mm 3 mps 729 mmHg 80%
    23:00 0°C° 0 mm 3 mps 729 mmHg 83%

    27 March, Wednesday

    Time Temperature Precipitation Wind Pressure Humidity
    00:00 +1°C° 0 mm 2 mps 729 mmHg 86%
    01:00 +1°C° 0 mm 2 mps 729 mmHg 89%
    02:00 -1°C° 0 mm 2 mps 729 mmHg 91%
    03:00 -1°C° 0 mm 2 mps 729 mmHg 92%
    04:00 -1°C° 0 mm 2 mps 729 mmHg 94%
    05:00 -1°C° 0 mm 2 mps 729 mmHg 92%
    06:00 +1°C° 0 mm 2 mps 729 mmHg 89%
    07:00 +1°C° 0 mm 2 mps 730 mmHg 87%
    08:00 +3°C° 0 mm 2 mps 730 mmHg 80%
    09:00 +5°C° 0 mm 2 mps 730 mmHg 72%
    10:00 +5°C° 0 mm 3 mps 731 mmHg 65%
    11:00 +5°C° 0 mm 3 mps 730 mmHg 65%
    12:00 +7°C° 0 mm 3 mps 730 mmHg 66%
    13:00 +7°C° 0 mm 3 mps 730 mmHg 67%
    14:00 +7°C° 0 mm 3 mps 730 mmHg 66%
    15:00 +7°C° 0 mm 3 mps 730 mmHg 65%
    16:00 +7°C° 0 mm 3 mps 730 mmHg 64%
    17:00 +5°C° 0 mm 3 mps 730 mmHg 69%
    18:00 +5°C° 0 mm 2 mps 730 mmHg 75%
    19:00 +5°C° 0 mm 1 mps 730 mmHg 81%
    20:00 +4°C° 0.5 mm 2 mps 730 mmHg 83%
    21:00 +4°C° 0.5 mm 2 mps 730 mmHg 85%
    22:00 +4°C° 0.5 mm 2 mps 731 mmHg 87%
    23:00 +5°C° 0.3 mm 1 mps 731 mmHg 90%

    28 March, Thursday

    Time Temperature Precipitation Wind Pressure Humidity
    00:00 +5°C° 0.3 mm 1 mps 731 mmHg 92%
    01:00 +5°C° 0.3 mm 1 mps 731 mmHg 94%
    02:00 +4°C° 0 mm 1 mps 731 mmHg 94%
    03:00 +4°C° 0 mm 1 mps 731 mmHg 94%
    04:00 +4°C° 0 mm 1 mps 730 mmHg 94%
    05:00 +4°C° 0 mm 1 mps 731 mmHg 94%
    06:00 +5°C° 0 mm 1 mps 731 mmHg 93%
    07:00 +5°C° 0 mm 1 mps 731 mmHg 92%
    08:00 +6°C° 0 mm 1 mps 732 mmHg 85%
    09:00 +7°C° 0 mm 1 mps 732 mmHg 79%
    10:00 +8°C° 0 mm 1 mps 732 mmHg 73%
    11:00 +9°C° 0 mm 1 mps 732 mmHg 70%
    12:00 +9°C° 0 mm 1 mps 732 mmHg 66%
    13:00 +10°C° 0 mm 1 mps 732 mmHg 63%
    14:00 +10°C° 0 mm 1 mps 732 mmHg 65%
    15:00 +9°C° 0 mm 2 mps 732 mmHg 66%
    16:00 +9°C° 0 mm 2 mps 732 mmHg 67%
    17:00 +7°C° 0 mm 2 mps 732 mmHg 73%
    18:00 +7°C° 0 mm 1 mps 732 mmHg 79%
    19:00 +6°C° 0 mm 1 mps 732 mmHg 86%
    20:00 +6°C° 0 mm 1 mps 732 mmHg 88%
    21:00 +5°C° 0 mm 1 mps 732 mmHg 90%
    22:00 +4°C° 0 mm 1 mps 732 mmHg 92%
    23:00 +4°C° 0 mm 1 mps 732 mmHg 92%

    29 March, Friday

    Time Temperature Precipitation Wind Pressure Humidity
    00:00 +4°C° 0 mm 1 mps 732 mmHg 91%
    01:00 +4°C° 0 mm 1 mps 732 mmHg 91%
    02:00 +4°C° 0 mm 1 mps 732 mmHg 91%
    03:00 +3°C° 0 mm 1 mps 732 mmHg 92%
    04:00 +3°C° 0 mm 1 mps 732 mmHg 92%
    05:00 +4°C° 0 mm 1 mps 733 mmHg 92%
    06:00 +4°C° 0 mm 1 mps 733 mmHg 91%
    07:00 +5°C° 0 mm 1 mps 733 mmHg 90%
    08:00 +7°C° 0 mm 1 mps 733 mmHg 82%
    09:00 +9°C° 0 mm 1 mps 733 mmHg 73%
    10:00 +11°C° 0 mm 1 mps 733 mmHg 65%
    11:00 +11°C° 0 mm 1 mps 733 mmHg 61%
    12:00 +12°C° 0 mm 1 mps 733 mmHg 56%
    13:00 +13°C° 0 mm 1 mps 733 mmHg 51%
    14:00 +13°C° 0 mm 2 mps 732 mmHg 51%
    15:00 +13°C° 0 mm 2 mps 732 mmHg 51%
    16:00 +13°C° 0 mm 2 mps 731 mmHg 51%
    17:00 +10°C° 0 mm 2 mps 731 mmHg 60%
    18:00 +10°C° 0 mm 1 mps 731 mmHg 69%
    19:00 +8°C° 0 mm 1 mps 731 mmHg 78%
    20:00 +7°C° 0 mm 1 mps 731 mmHg 82%
    21:00 +7°C° 0 mm 1 mps 731 mmHg 85%
    22:00 +5°C° 0 mm 0 mps 731 mmHg 88%
    23:00 +5°C° 0 mm 0 mps 731 mmHg 89%
    Show more